User: anonymous   Login
Location: 相模原市立博物館
(35.5593°N, 139.3931°E)
Time: 13:39:18
(UTC+09:00)
Language:

RS-44 - Orbit

View from above orbital plane
View from above orbital plane
View from above satellite
View from above satellite

Ground track
Ground track

The orbit data is extracted from the following two-line orbital elements,

1 44909U 19096E   22024.80444288  .00000017  00000-0  32845-4 0  9993
2 44909  82.5244 325.7293 0216469 295.7858  62.1050 12.79712093 97175
Epoch (UTC): 24 January 2022 19:18:23
Eccentricity: 0.0216469
inclination: 82.5244°
perigee height: 1175 km
apogee height: 1510 km
right ascension of ascending node: 325.7293°
argument of perigee: 295.7858°
revolutions per day: 12.79712093
mean anomaly at epoch: 62.1050°
orbit number at epoch: 9717

The dashed part of the orbit path shows where the satellite is in the earth's shadow,  

DLR